Location: Unspecified
(0.0000°N, 0.0000°E)
Time: 20:27:18
(UTC+00:00)

ISTSAT-1 - Visible Passes

Search period start: 07 September 2024 00:00
Search period end: 17 September 2024 00:00
Orbit: 561 x 584 km, 62.0° (Epoch: 07 September)

Date Brightness Start Highest point End Pass type
(mag) Time Alt. Az. Time Alt. Az. Time Alt. Az.
14 Sep ? 20:01:22 10° SW 20:02:34 18° SW 20:02:34 18° SW visible
15 Sep ? 18:26:03 10° SSE 18:28:23 15° ESE 18:30:22 11° E visible
15 Sep ? 20:04:00 10° WSW 20:06:39 22° W 20:06:39 22° W visible
16 Sep ? 18:26:52 10° S 18:30:22 26° ESE 18:33:53 10° ENE visible
16 Sep ? 20:07:30 10° W 20:09:17 12° WNW 20:10:59 10° NW visible
